Location: Buisson
(44.2787°N, 4.9969°E)
Time: 02:32:18
(UTC+00:00)

Cosmos 2278 Rocket - Pass Details

Date: 18 April 2021
Orbit: 842 x 844 km, 71.0° (Epoch: 07 May)

Event Time Altitude Azimuth Distance (km) Brightness Sun altitude
Exits shadow 00:30:58 17° 87° (E) 2,017 4.3 -33.7°
Drops below altitude 10° 00:33:41 10° 59° (ENE) 2,469 5.1 -33.5°
Sets 00:36:55 0° 41° (NE) 3,409 6.2 -33.4°
